Regional Weather Roundup
Issued by NWS

Home | Current Version | Previous Version | Graphics & Text | Print | Product List | Glossary On
Versions: 1 2 3 4 5 6 7 8 9 10 11 12 13 14 15 16 17 18 19 20 21 22 23 24 25 26 27 28 29 30 31 32 33 34 35 36 37 38 39 40 41 42 43 44 45 46 47 48 49 50
000
ASUS45 KSLC 012010
RWRUT

UTAH REGIONAL WEATHER ROUNDUP
NATIONAL WEATHER SERVICE SALT LAKE CITY UT
200 PM MDT TUE SEP 01 2015

UTZ001>011-023>025-012100-

NORTHERN UTAH

CITY           SKY/WX    TMP DP  RH WIND       PRES   REMARKS
BRIGHAM CITY   MOSUNNY   88  38  17 S5        29.97F
HILL AFB       TSTM      84  46  26 VRB5      29.99F
LOGAN          SUNNY     85  41  21 NE5       29.98F
OGDEN          MOSUNNY   86  44  23 W8        29.96F
PROVO AIRPORT  MOSUNNY   86  46  25 W6        30.02F
SALT LAKE CITY MOSUNNY   91  43  18 S20G25    29.94F
VERNAL         SUNNY     82  45  27 S8        30.08F
WENDOVER       SUNNY     86  39  19 E8        29.94F
HEBER CITY     MOSUNNY   84  37  18 W13G23    30.08F
WEST JORDAN    MOSUNNY   88  43  20 SE18G25   29.99F

$$

UTZ012>022-026-027-012100-

SOUTHERN/CENTRAL UTAH

CITY           SKY/WX    TMP DP  RH WIND       PRES   REMARKS
BLANDING       MOSUNNY   81  46  28 S8        30.25F
BRYCE CANYON   SUNNY     75  40  28 S10G17    30.29F
CEDAR CITY     SUNNY     84  37  18 S15G26    30.13F
DELTA          SUNNY     88  38  17 SW15G24   30.02F
HANKSVILLE     MOSUNNY   90  45  20 CALM      30.06F
MILFORD        SUNNY     89  37  16 SW23G33   30.07F
MOAB/CYNLANDS  SUNNY     87  49  26 CALM      30.03F
PRICE          PTSUNNY   77  47  34 VRB3      30.15F
ST GEORGE      PTCLDY    91  48  22 NW6       29.96F

$$

REGIONAL REPORTS     COLORADO/ARIZONA

CITY           SKY/WX    TMP DP  RH WIND       PRES   REMARKS
CRAIG, CO      MOSUNNY   80  45  28 S7G18     30.15F
GRAND JUNCTION MOSUNNY   81  50  33 E5        30.09F
RIFLE          MOSUNNY   75  50  41 S6        30.15F
MONTROSE       MOSUNNY   85  43  22 NE7       30.15F
CORTEZ         SUNNY     83  44  25 VRB6      30.18F
PAGE, AZ       MOSUNNY   87  52  29 N5        30.07F
GRAND CANYON   SUNNY     78  48  34 SW5       30.25F
KINGMAN        MOSUNNY   91  49  23 SW14      30.02F
FLAGSTAFF      MOSUNNY   75  48  38 S12G17    30.29F

$$

REGIONAL REPORTS    NEVADA/IDAHO/WYOMING

CITY           SKY/WX    TMP DP  RH WIND       PRES   REMARKS
LAS VEGAS, NV  MOSUNNY   97  51  21 S12       29.85F HX  94
ELY            SUNNY     82  27  13 S15G29    30.12F
ELKO           SUNNY     89  24   9 S12G17    29.97F
POCATELLO, ID  SUNNY     81  36  19 MISG      29.98F
BURLEY         SUNNY     83  29  14 CALM      29.93F
EVANSTON, WY   PTSUNNY   73  37  27 SE12      30.18R
ROCK SPRINGS   SUNNY     80  37  21 SW13      30.14F
KEMMERER       PTSUNNY   75  32  20 W20G26    30.17S

$$



USA.gov is the U.S. government's official web portal to all federal, state and local government web resources and services.